Weather History for Phoenix-Mesa Gateway Airport, AZ

Change the Weather History Date:

Sunday, May 19, 2013

  Actual Average Record
Temperature  
Mean Temperature 78 °F -  
Max Temperature 93 °F 92 °F 107 °F (2008)
Min Temperature 64 °F 65 °F 42 °F (2011)
Cooling Degree Days 14    
Growing Degree Days 28 (Base 50)    
Moisture  
Dew Point 34 °F    
Average Humidity 24    
Maximum Humidity 58    
Minimum Humidity 11    
Precipitation  
Precipitation 0.00 in - - ()
Sea Level Pressure  
Sea Level Pressure 29.85 in    
Wind  
Wind Speed 6 mph (South)    
Max Wind Speed 13 mph    
Max Gust Speed 20 mph    
Visibility 12 miles    
Events      
Averages and records for this station are not official NWS values.
T = Trace of Precipitation, MM = Missing Value Source: NWS Daily Summary

Daily Weather History Graph

Daily Weather History Graph

Search for Another Location

Airport:

Trip Planner

Search our weather history database for the weather conditions in past years. The results will help you decide how hot, cold, wet, or windy it might be!

Date:

Astronomy

May. 19, 2013 Rise Set
Actual Time 5:23 AM MST 7:22 PM MST
Civil Twilight 4:56 AM MST 7:50 PM MST
Nautical Twilight 4:22 AM MST 8:24 PM MST
Astronomical Twilight 3:46 AM MST 9:00 PM MST
Moon 1:47 PM MST (5/19) 1:31 AM MST (5/19)
Length of Visible Light 14h 54m
Length of Day
13h 59m
Waxing Gibbous, 66% of the Moon is Illuminated
May 19
Waxing Gibbous
May 24
Full
May 31
Last Quarter
Jun 8
New
Jun 16
First Quarter

Hourly Weather History & Observations

Time (MST) Temp. Heat Index Dew Point Humidity Pressure Visibility Wind Dir Wind Speed Gust Speed Precip Events Conditions
12:15 AM 71.6 °F - 32.0 °F 23% 29.87 in 10.0 mi Calm Calm - N/A   Clear
12:35 AM 68.0 °F - 32.0 °F 26% 29.87 in 10.0 mi ESE 5.8 mph - N/A   Clear
12:55 AM 68.0 °F - 33.8 °F 28% 29.87 in 10.0 mi SSE 4.6 mph - N/A   Clear
1:15 AM 68.0 °F - 32.0 °F 26% 29.87 in 10.0 mi Calm Calm - N/A   Clear
1:35 AM 69.8 °F - 32.0 °F 25% 29.87 in 10.0 mi SE 3.5 mph - N/A   Clear
1:55 AM 69.8 °F - 32.0 °F 25% 29.87 in 10.0 mi SE 3.5 mph - N/A   Clear
2:15 AM 64.4 °F - 30.2 °F 28% 29.88 in 10.0 mi SE 6.9 mph - N/A   Clear
2:35 AM 64.4 °F - 33.8 °F 32% 29.87 in 10.0 mi ESE 6.9 mph - N/A   Clear
2:55 AM 64.4 °F - 33.8 °F 32% 29.88 in 10.0 mi East 5.8 mph - N/A   Clear
3:15 AM 64.4 °F - 32.0 °F 30% 29.88 in 10.0 mi ESE 6.9 mph - N/A   Clear
3:35 AM 64.4 °F - 33.8 °F 32% 29.88 in 10.0 mi East 6.9 mph - N/A   Clear
3:55 AM 64.4 °F - 32.0 °F 30% 29.89 in 10.0 mi East 8.1 mph - N/A   Clear
4:15 AM 64.4 °F - 33.8 °F 32% 29.89 in 10.0 mi East 8.1 mph - N/A   Clear
4:35 AM 66.2 °F - 37.4 °F 35% 29.89 in 10.0 mi East 9.2 mph - N/A   Clear
4:47 AM 66.2 °F - 39.2 °F 37% 29.89 in 20.0 mi East 8.1 mph - N/A   Clear
4:55 AM 66.2 °F - 37.4 °F 35% 29.89 in 10.0 mi ESE 8.1 mph - N/A   Clear
5:15 AM 64.4 °F - 37.4 °F 37% 29.89 in 10.0 mi ESE 8.1 mph - N/A   Clear
5:47 AM 66.2 °F - 39.2 °F 37% 29.90 in 45.0 mi East 6.9 mph - N/A   Clear
6:47 AM 68.0 °F - 41.0 °F 37% 29.91 in 30.0 mi ESE 9.2 mph - N/A   Clear
7:47 AM 73.4 °F - 39.2 °F 29% 29.92 in 30.0 mi SE 9.2 mph - N/A   Clear
8:47 AM 78.8 °F - 41.0 °F 26% 29.93 in 30.0 mi South 5.8 mph - N/A   Clear
9:47 AM 80.6 °F - 39.2 °F 23% 29.92 in 30.0 mi South 4.6 mph - N/A   Clear
10:48 AM 84.2 °F - 35.6 °F 18% 29.91 in 30.0 mi Variable 4.6 mph - N/A   Clear
11:51 AM 86.0 °F - 35.6 °F 17% 29.89 in 30.0 mi West 6.9 mph - N/A   Clear
12:47 PM 87.8 °F - 33.8 °F 15% 29.86 in 30.0 mi SSW 6.9 mph - N/A   Clear
1:47 PM 87.8 °F - 32.0 °F 14% 29.84 in 30.0 mi SW 10.4 mph - N/A   Clear
2:47 PM 91.4 °F - 33.8 °F 13% 29.82 in 30.0 mi West 8.1 mph 17.3 mph N/A   Clear
3:47 PM 91.4 °F - 33.8 °F 13% 29.80 in 30.0 mi West 11.5 mph 19.6 mph N/A   Clear
4:47 PM 93.2 °F - 33.8 °F 12% 29.78 in 35.0 mi West 5.8 mph - N/A   Clear
5:47 PM 93.2 °F - 33.8 °F 12% 29.77 in 35.0 mi WSW 6.9 mph 19.6 mph N/A   Clear
6:51 PM 91.4 °F - 30.2 °F 11% 29.78 in 35.0 mi WSW 12.7 mph - N/A   Clear
7:47 PM 86.0 °F 90.4 °F 69.8 °F 58% 29.78 in 20.0 mi SW 9.2 mph - N/A   Clear
7:55 PM 86.0 °F - 30.2 °F 13% 29.78 in 10.0 mi SW 10.4 mph - N/A   Clear
8:15 PM 82.4 °F - 30.2 °F 15% 29.79 in 10.0 mi WSW 8.1 mph - N/A   Clear
8:35 PM 82.4 °F - 30.2 °F 15% 29.80 in 10.0 mi WSW 9.2 mph - N/A   Clear
8:50 PM 84.2 °F - 30.2 °F 14% 29.80 in 20.0 mi SW 9.2 mph - N/A   Clear
8:55 PM 80.6 °F - 32.0 °F 17% 29.80 in 10.0 mi WSW 6.9 mph - N/A   Clear
9:15 PM 80.6 °F - 32.0 °F 17% 29.82 in 10.0 mi WSW 5.8 mph - N/A   Clear
9:35 PM 80.6 °F - 32.0 °F 17% 29.82 in 10.0 mi WSW 5.8 mph - N/A   Clear
9:47 PM 78.8 °F - 30.2 °F 17% 29.82 in 20.0 mi WSW 6.9 mph - N/A   Clear
9:55 PM 78.8 °F - 32.0 °F 18% 29.82 in 10.0 mi WSW 8.1 mph - N/A   Clear
10:15 PM 78.8 °F - 32.0 °F 18% 29.82 in 10.0 mi WSW 9.2 mph - N/A   Clear
10:35 PM 78.8 °F - 33.8 °F 20% 29.82 in 10.0 mi WSW 6.9 mph - N/A   Clear
10:47 PM 78.8 °F - 33.8 °F 20% 29.82 in 20.0 mi SW 5.8 mph - N/A   Clear
10:55 PM 78.8 °F - 32.0 °F 18% 29.82 in 10.0 mi SSW 5.8 mph - N/A   Clear
11:15 PM 77.0 °F - 32.0 °F 19% 29.82 in 10.0 mi Calm Calm - N/A   Clear
11:35 PM 71.6 °F - 32.0 °F 23% 29.83 in 10.0 mi ENE 4.6 mph - N/A   Clear
11:55 PM 75.2 °F - 32.0 °F 21% 29.83 in 10.0 mi Calm Calm - N/A   Clear